Weather in Serpnevoe

Ukraine / Odesa District     46°18′09″N   29°01′21″E
temp.,
°C
wind,
m/s
gust,
m/s
humid.,
%
clouds,
%
prec.,
mm/h
press.,
hPa
HPBL,
m
27 february, sat
sat2723:00+10sw11600 0.0 102122
02:00+9nw00630 0.0 102022
05:00+8n22670 0.0 101822
08:00+8nnw512800 0.0 1020352
11:00+9n8116842 0.0 1021770
14:00+7n7107570 0.0 1022859
17:00+5nnw71183100 0.1 1022796
20:00+5nnw71168100 0.1 10241173
28 february, sun
sun2823:00+4nnw8128167 0.1 10241035
02:00+3nnw7148161 0.1 1025649
05:00+2nnw8138749 0.0 1025799
08:00+2nnw7118872 0.1 1027863
11:00+4nnw8107593 0.2 10271027
14:00+5nnw8116997 0.4 10271300
17:00+4nnw71066100 0.1 10261223
20:00+2nw3973100 0.1 1027470
1 march, mon
mon123:00+2wnw4107595 0.0 1027368
02:00+2nw599697 0.4 1027486
05:00+2nw5896100 0.4 1026463
08:00+2n5896100 0.6 1027439
11:00+5n577099 0.1 10291020
14:00+4nne577795 0.4 1030798
17:00+5n587389 0.2 1030908
20:00+3nne588994 0.3 1032647
2 march, tue
tue223:00+2nnw4789100 0.0 1033381
02:00+1nnw369564 0.0 1033154
05:000nw369321 0.0 1032140
08:00+2wnw379124 0.0 1032277
11:00+6nw687265 0.0 1032698
14:00+9nw685871 0.0 1030910
17:00+9wnw695970 0.0 1028683
20:00+6wnw497138 0.0 1028212
3 march, wed
wed323:00+6nw513780 0.0 1029339
02:00+5nw512840 0.0 1029331
05:00+4nw612880 0.0 1029351
08:00+4nnw511850 0.0 1030382
11:00+9nnw576421 0.0 1030626
14:00+12nnw554920 0.0 1029999
17:00+11nw45560 0.0 1028756
20:00+7nw23710 0.0 102830